Location: Ash Shall?l al Awwal
(24.0167°N, 32.8667°E)
Time: 18:51:39
(UTC+00:00)

Palapa 6 Rocket - Pass Details

Date: 02 March 2021
Orbit: 485 x 1216 km, 22.7° (Epoch: 09 April)

Event Time Altitude Azimuth Distance (km) Brightness Sun altitude
Rises 18:09:07 0° 271° (W) 3,912 8.3 -32.1°
Reaches altitude 10° 18:11:49 10° 270° (W) 3,024 7.4 -32.7°
Enters shadow 18:19:00 76° 233° (SW) 1,237 4.4 -34.3°
